N541DF LLHA-LLHA

Flight info

Callsign N541DF
Flight time N/A
Altitude 1000
Route CVFR
Aircraft SR22/L-SDE/C

Departure

Time 2026-04-25 17:32
Airport Uri Michaeli Haifa International Airport (LLHA)

Arrival

Time N/A
Airport Uri Michaeli Haifa International Airport (LLHA)
Time Latitude Longitude Altitude Speed Heading
2026-04-25 17:25 32.81531 35.04314 23 ft 0 kts 250°
2026-04-25 17:29 32.81523 35.04300 23 ft 9 kts 225°
2026-04-25 17:29 32.81489 35.04223 27 ft 0 kts 251°
2026-04-25 17:30 32.81489 35.04220 27 ft 7 kts 251°
2026-04-25 17:30 32.81383 35.04213 24 ft 29 kts 159°
2026-04-25 17:30 32.81163 35.04309 22 ft 38 kts 160°
2026-04-25 17:30 32.80955 35.04412 23 ft 20 kts 151°
2026-04-25 17:31 32.80917 35.04412 23 ft 8 kts 330°
2026-04-25 17:31 32.81033 35.04367 22 ft 46 kts 340°
2026-04-25 17:31 32.81519 35.04147 82 ft 94 kts 337°
2026-04-25 17:31 32.82173 35.03825 370 ft 106 kts 334°
2026-04-25 17:32 32.82914 35.03462 541 ft 124 kts 337°
2026-04-25 17:32 32.83647 35.03676 891 ft 124 kts 56°
2026-04-25 17:32 32.84002 35.04719 905 ft 147 kts 67°
2026-04-25 17:32 32.83558 35.05577 873 ft 162 kts 179°
2026-04-25 17:33 32.82487 35.05622 1086 ft 155 kts 171°
2026-04-25 17:33 32.81422 35.05930 934 ft 157 kts 152°
2026-04-25 17:33 32.80789 35.06385 917 ft 153 kts 146°
2026-04-25 17:33 32.79978 35.07178 930 ft 150 kts 144°
2026-04-25 17:34 32.79054 35.07263 1001 ft 149 kts 218°
2026-04-25 17:34 32.78322 35.06366 979 ft 136 kts 241°
2026-04-25 17:34 32.78421 35.05559 802 ft 107 kts 323°
2026-04-25 17:34 32.79036 35.05149 446 ft 107 kts 336°
2026-04-25 17:35 32.79688 35.04898 226 ft 94 kts 346°
2026-04-25 17:35 32.80273 35.04714 53 ft 84 kts 338°
2026-04-25 17:35 32.80752 35.04489 22 ft 63 kts 336°
2026-04-25 17:35 32.81206 35.04288 24 ft 91 kts 343°
2026-04-25 17:36 32.81843 35.04011 281 ft 105 kts 334°
2026-04-25 17:36 32.82512 35.03692 676 ft 104 kts 332°